• In Spain
  • List of Countries
  • For 7 days
  • Water Temperature
  • Satellite Maps
  • Weather Map
  • Weather Widgets
  • user-avatar
    Login

    Hourly Weather Zenica

    Today, 19 September, Wednesday

    Time Temperature Precipitation Wind Pressure Humidity
    00:00 +13°C° 0 mm 1 mps 680 mmHg 70%
    01:00 +13°C° 0 mm 1 mps 680 mmHg 69%
    02:00 +13°C° 0 mm 1 mps 680 mmHg 69%
    03:00 +13°C° 0 mm 1 mps 680 mmHg 69%
    04:00 +13°C° 0 mm 1 mps 680 mmHg 69%
    05:00 +14°C° 0 mm 1 mps 680 mmHg 68%
    06:00 +15°C° 0 mm 1 mps 681 mmHg 66%
    07:00 +16°C° 0 mm 1 mps 681 mmHg 59%
    08:00 +20°C° 0 mm 1 mps 682 mmHg 54%
    09:00 +22°C° 0 mm 1 mps 683 mmHg 48%
    10:00 +25°C° 0 mm 1 mps 683 mmHg 42%
    11:00 +25°C° 0 mm 1 mps 683 mmHg 41%
    12:00 +26°C° 0 mm 1 mps 683 mmHg 40%
    13:00 +26°C° 0 mm 2 mps 683 mmHg 39%
    14:00 +25°C° 0 mm 2 mps 682 mmHg 43%
    15:00 +24°C° 0 mm 1 mps 682 mmHg 47%
    16:00 +23°C° 0 mm 1 mps 682 mmHg 52%
    17:00 +21°C° 0.1 mm 1 mps 681 mmHg 59%
    18:00 +19°C° 0.1 mm 1 mps 681 mmHg 66%
    19:00 +16°C° 0.1 mm 1 mps 681 mmHg 74%
    20:00 +16°C° 0 mm 1 mps 681 mmHg 75%
    21:00 +15°C° 0 mm 1 mps 681 mmHg 76%
    22:00 +15°C° 0 mm 1 mps 681 mmHg 78%
    23:00 +14°C° 0 mm 1 mps 681 mmHg 78%

    Tomorrow, 20 September, Thursday

    Time Temperature Precipitation Wind Pressure Humidity
    00:00 +14°C° 0 mm 1 mps 681 mmHg 79%
    01:00 +14°C° 0 mm 1 mps 681 mmHg 80%
    02:00 +14°C° 0 mm 1 mps 680 mmHg 80%
    03:00 +14°C° 0 mm 1 mps 680 mmHg 81%
    04:00 +14°C° 0 mm 1 mps 680 mmHg 81%
    05:00 +14°C° 0 mm 1 mps 680 mmHg 80%
    06:00 +15°C° 0 mm 1 mps 681 mmHg 78%
    07:00 +15°C° 0 mm 0 mps 681 mmHg 76%
    08:00 +19°C° 0 mm 1 mps 682 mmHg 68%
    09:00 +21°C° 0 mm 1 mps 682 mmHg 59%
    10:00 +23°C° 0 mm 1 mps 683 mmHg 51%
    11:00 +24°C° 0.1 mm 1 mps 682 mmHg 50%
    12:00 +24°C° 0.1 mm 2 mps 682 mmHg 48%
    13:00 +24°C° 0.1 mm 2 mps 682 mmHg 47%
    14:00 +24°C° 0.3 mm 2 mps 682 mmHg 51%
    15:00 +23°C° 0.3 mm 1 mps 682 mmHg 55%
    16:00 +22°C° 0.3 mm 1 mps 681 mmHg 58%
    17:00 +20°C° 0.1 mm 1 mps 681 mmHg 62%
    18:00 +19°C° 0.1 mm 1 mps 680 mmHg 66%
    19:00 +15°C° 0.1 mm 0 mps 680 mmHg 69%
    20:00 +16°C° 0.1 mm 1 mps 680 mmHg 70%
    21:00 +15°C° 0.1 mm 1 mps 680 mmHg 71%
    22:00 +15°C° 0.1 mm 1 mps 680 mmHg 72%
    23:00 +15°C° 0 mm 1 mps 680 mmHg 74%

    Day after tomorrow, 21 September, Friday

    Time Temperature Precipitation Wind Pressure Humidity
    00:00 +14°C° 0 mm 1 mps 679 mmHg 76%
    01:00 +14°C° 0 mm 1 mps 679 mmHg 77%
    02:00 +14°C° 0 mm 1 mps 679 mmHg 78%
    03:00 +14°C° 0 mm 1 mps 679 mmHg 80%
    04:00 +14°C° 0 mm 1 mps 679 mmHg 81%
    05:00 +14°C° 0 mm 1 mps 679 mmHg 79%
    06:00 +15°C° 0 mm 1 mps 679 mmHg 78%
    07:00 +16°C° 0 mm 1 mps 680 mmHg 76%
    08:00 +19°C° 0 mm 1 mps 680 mmHg 68%
    09:00 +21°C° 0 mm 1 mps 681 mmHg 60%
    10:00 +24°C° 0 mm 1 mps 682 mmHg 52%
    11:00 +24°C° 0.2 mm 1 mps 681 mmHg 52%
    12:00 +24°C° 0.2 mm 1 mps 681 mmHg 52%
    13:00 +25°C° 0.2 mm 2 mps 681 mmHg 51%
    14:00 +24°C° 0.4 mm 1 mps 681 mmHg 54%
    15:00 +24°C° 0.4 mm 1 mps 680 mmHg 57%
    16:00 +23°C° 0.4 mm 1 mps 680 mmHg 60%
    17:00 +21°C° 0.2 mm 1 mps 679 mmHg 67%
    18:00 +19°C° 0.2 mm 1 mps 679 mmHg 73%
    19:00 +16°C° 0.2 mm 1 mps 679 mmHg 80%
    20:00 +16°C° 0 mm 1 mps 679 mmHg 82%
    21:00 +15°C° 0 mm 1 mps 679 mmHg 84%
    22:00 +15°C° 0 mm 1 mps 679 mmHg 86%
    23:00 +15°C° 0 mm 1 mps 679 mmHg 87%

    22 September, Saturday

    Time Temperature Precipitation Wind Pressure Humidity
    00:00 +14°C° 0 mm 1 mps 679 mmHg 89%
    01:00 +14°C° 0 mm 1 mps 679 mmHg 90%
    02:00 +14°C° 0 mm 1 mps 679 mmHg 90%
    03:00 +14°C° 0 mm 1 mps 679 mmHg 90%
    04:00 +13°C° 0 mm 1 mps 679 mmHg 90%
    05:00 +14°C° 0 mm 1 mps 679 mmHg 88%
    06:00 +15°C° 0 mm 1 mps 679 mmHg 85%
    07:00 +16°C° 0 mm 1 mps 680 mmHg 82%
    08:00 +19°C° 0 mm 1 mps 680 mmHg 73%
    09:00 +22°C° 0 mm 1 mps 681 mmHg 64%
    10:00 +24°C° 0 mm 1 mps 681 mmHg 54%
    11:00 +24°C° 0 mm 1 mps 681 mmHg 52%
    12:00 +25°C° 0 mm 2 mps 681 mmHg 50%
    13:00 +25°C° 0 mm 2 mps 681 mmHg 48%
    14:00 +24°C° 0.1 mm 2 mps 681 mmHg 53%
    15:00 +24°C° 0.1 mm 1 mps 681 mmHg 57%
    16:00 +23°C° 0.1 mm 1 mps 681 mmHg 61%
    17:00 +21°C° 0.2 mm 1 mps 681 mmHg 69%
    18:00 +18°C° 0.2 mm 1 mps 681 mmHg 76%
    19:00 +15°C° 0.2 mm 1 mps 681 mmHg 84%
    20:00 +14°C° 0 mm 2 mps 681 mmHg 83%
    21:00 +13°C° 0 mm 2 mps 681 mmHg 83%
    22:00 +12°C° 0 mm 2 mps 682 mmHg 82%
    23:00 +10°C° 0 mm 2 mps 682 mmHg 82%

    23 September, Sunday

    Time Temperature Precipitation Wind Pressure Humidity
    00:00 +10°C° 0 mm 1 mps 681 mmHg 83%
    01:00 +9°C° 0 mm 1 mps 681 mmHg 83%
    02:00 +9°C° 0 mm 1 mps 681 mmHg 83%
    03:00 +9°C° 0 mm 1 mps 681 mmHg 83%
    04:00 +9°C° 0 mm 1 mps 681 mmHg 83%
    05:00 +9°C° 0 mm 1 mps 681 mmHg 82%
    06:00 +10°C° 0 mm 1 mps 681 mmHg 81%
    07:00 +10°C° 0 mm 1 mps 681 mmHg 80%
    08:00 +13°C° 0 mm 1 mps 682 mmHg 72%
    09:00 +16°C° 0 mm 1 mps 682 mmHg 64%
    10:00 +20°C° 0 mm 1 mps 682 mmHg 57%
    11:00 +22°C° 0 mm 1 mps 682 mmHg 54%
    12:00 +24°C° 0 mm 1 mps 682 mmHg 52%
    13:00 +25°C° 0 mm 2 mps 682 mmHg 49%
    14:00 +25°C° 0 mm 2 mps 681 mmHg 52%
    15:00 +24°C° 0 mm 2 mps 681 mmHg 55%
    16:00 +23°C° 0 mm 2 mps 680 mmHg 57%
    17:00 +20°C° 0 mm 2 mps 679 mmHg 65%
    18:00 +18°C° 0 mm 2 mps 678 mmHg 73%
    19:00 +16°C° 0 mm 2 mps 678 mmHg 82%
    20:00 +15°C° 0 mm 2 mps 677 mmHg 83%
    21:00 +15°C° 0 mm 2 mps 677 mmHg 85%
    22:00 +14°C° 0 mm 3 mps 676 mmHg 87%
    23:00 +14°C° 0 mm 3 mps 676 mmHg 85%

    24 September, Monday

    Time Temperature Precipitation Wind Pressure Humidity
    00:00 +14°C° 0 mm 3 mps 675 mmHg 83%
    01:00 +14°C° 0 mm 3 mps 675 mmHg 81%
    02:00 +14°C° 0 mm 4 mps 675 mmHg 81%
    03:00 +14°C° 0 mm 4 mps 674 mmHg 81%
    04:00 +14°C° 0 mm 4 mps 674 mmHg 82%
    05:00 +15°C° 0 mm 4 mps 674 mmHg 81%
    06:00 +15°C° 0 mm 4 mps 674 mmHg 80%
    07:00 +17°C° 0 mm 4 mps 674 mmHg 80%
    08:00 +17°C° 0.1 mm 5 mps 674 mmHg 75%
    09:00 +19°C° 0.1 mm 6 mps 674 mmHg 71%
    10:00 +21°C° 0.1 mm 6 mps 674 mmHg 67%
    11:00 +21°C° 0.1 mm 6 mps 674 mmHg 67%
    12:00 +21°C° 0.1 mm 7 mps 673 mmHg 67%
    13:00 +21°C° 0.1 mm 7 mps 673 mmHg 67%
    14:00 +20°C° 0.5 mm 6 mps 673 mmHg 71%
    15:00 +19°C° 0.5 mm 5 mps 674 mmHg 76%
    16:00 +18°C° 0.5 mm 4 mps 674 mmHg 80%
    17:00 +14°C° 3.1 mm 4 mps 674 mmHg 85%
    18:00 +12°C° 3.1 mm 3 mps 674 mmHg 90%
    19:00 +10°C° 3.1 mm 3 mps 675 mmHg 95%
    20:00 +8°C° 2 mm 3 mps 675 mmHg 94%
    21:00 +7°C° 2 mm 2 mps 675 mmHg 94%
    22:00 +6°C° 2 mm 2 mps 675 mmHg 94%
    23:00 +6°C° 0.6 mm 2 mps 676 mmHg 93%
    Show more